Location: Unspecified
(52.1384°N, 8.6525°W)
Time: 14:49:26
(UTC+00:00)

XW-2F - Pass Details

Date: 18 January 2021
Orbit: 500 x 520 km, 97.5° (Epoch: 06 March)

Event Time Altitude Azimuth Distance (km) Brightness Sun altitude
Rises 07:10:01 0° 11° (N) 2,657 ? -12.3°
Reaches altitude 10° 07:12:08 10° 9° (N) 1,767 ? -12.0°
Maximum altitude 07:15:55 65° 287° (WNW) 578 ? -11.5°
Drops below altitude 10° 07:19:40 10° 206° (SSW) 1,756 ? -10.9°
Sets 07:21:46 0° 203° (SSW) 2,639 ? -10.6°
